Home   Weather   Mombasa   Past weeks

Flag for Kenya Past Weather in Mombasa, Kenya — Yesterday and Last 2 Weeks

Now
79 °F

Passing clouds.


Feels Like: 83 °F
Forecast: 79 / 88 °F
Wind: 9 mph from Southwest

Location: Mombasa Airport

Current Time: Apr 27, 2017 at 6:32:01 am

Latest Report: Apr 27, 2017 at 5:00 am


Visibility: N/A

Pressure: 29.92 "Hg

Humidity: 94%

Dew Point: 77 °F

Location of MombasaLocation

Past Weather in Mombasa — Graph

°F

Mombasa Temperature Yesterday

Maximum temperature yesterday: 90 °F (at 1:00 pm)
Minimum temperature yesterday: 77 °F (at 6:00 am)
Average temperature yesterday: 84 °F

High & Low Weather Summary for the Past Weeks

 TemperatureHumidityPressure
High93 °F (Apr 14, 1:00 pm)100% (Apr 20, 6:00 am)30.01 "Hg (Apr 20, 6:00 am)
Low75 °F (Apr 20, 6:00 am)28% (Apr 15, 3:00 pm)29.77 "Hg (Apr 17, 4:00 pm)
Average84 °F76%29.88 "Hg
* Reported Apr 12 3:00 am — Apr 27 3:00 am, Mombasa, Weather by CustomWeather, © 2017

Note: Actual official high and low records may vary slightly from our data, if they occured in-between our weather recording intervals... More about our weather records

Advertising

Mombasa Weather History for the Previous 24 Hours

Scroll right to see more
 ConditionsComfort  
Time TempWeatherWind HumidityBarometerVisibility
3:00 am
Thu, Apr 27
79 °FPassing clouds.9 mph94%29.89 "HgN/A
12:00 am81 °FPassing clouds.8 mph89%29.95 "HgN/A
11:00 pm
Wed, Apr 26
81 °FPassing clouds.9 mph89%29.95 "HgN/A
10:00 pm82 °FPassing clouds.8 mph79%29.95 "HgN/A
9:00 pm82 °FPassing clouds.9 mph79%29.95 "HgN/A
8:00 pm82 °FPassing clouds.7 mph79%29.92 "HgN/A
6:00 pm84 °FScattered clouds.7 mph74%29.89 "HgN/A
5:00 pm86 °FScattered clouds.9 mph66%29.86 "HgN/A
4:00 pm88 °FScattered clouds.10 mph66%29.86 "HgN/A
3:00 pm88 °FScattered clouds.12 mph66%29.86 "HgN/A
2:00 pm90 °FScattered clouds.10 mph63%29.89 "HgN/A
1:00 pm90 °FScattered clouds.8 mph63%29.92 "HgN/A
12:00 pm88 °FScattered clouds.10 mph66%29.95 "HgN/A
11:00 am88 °FScattered clouds.10 mph62%29.98 "HgN/A
9:00 am82 °FScattered clouds.10 mph84%30.01 "HgN/A
8:00 am79 °FPassing clouds.6 mph94%29.98 "HgN/A
7:00 am79 °FScattered clouds.3 mph94%29.95 "HgN/A
6:00 am77 °FPassing clouds.3 mph94%29.92 "HgN/A
Weather by CustomWeather, © 2017

See weather overviewHow to use our weather pages